#timestamp,LO_Frequency,Hit,StdDev 
1507370415.4,286047004.0,N
1507370435.2,286047003.9,N
1507370455.0,286047002.9,N
1507370455.9,286047002.9,N
1507370475.8,286047003.7,N
1507370495.6,286047005.6,N
1507370515.4,286047003.2,N
1507370535.3,286047001.4,N
1507370555.1,286047002.1,N
1507370556.0,286047002.1,N
1507370575.8,286047000.2,N
1507370595.7,286047005.4,N
1507370615.5,286047008.5,N
1507370635.3,286047005.2,N
1507370655.2,286047006.8,N
1507370675.9,286047007.2,N
1507370695.7,286047003.9,N
1507370715.5,286047002.7,N
1507370735.4,286046998.7,N
1507370755.2,286046997.2,N
1507370775.0,286046995.8,N
1507370775.9,286046995.8,N
1507370795.8,286046998.0,N
1507370815.6,286046996.3,N
1507370835.4,286046996.0,N
1507370855.3,286046996.5,N
1507370875.1,286046999.3,N
1507370895.8,286046998.7,N
1507370915.7,286046998.9,N
1507370935.5,286047001.2,N
1507370955.3,286047000.6,N
1507370975.2,286047000.0,N
1507370995.9,286047000.8,N
1507371015.7,286047000.2,N
1507371035.6,286046999.0,N
1507371055.4,286047002.2,N
1507371075.2,286046998.5,N
1507371095.0,286046998.4,N
1507371095.9,286046998.4,N
1507371115.8,286046998.3,N
1507371135.6,286047001.9,N
1507371155.4,286046999.9,N
1507371175.3,286047002.0,N
1507371195.1,286047001.2,N
1507371215.8,286047000.4,N
1507371235.7,286047000.9,N
1507371255.5,286046998.0,N
1507371275.3,286046995.1,N
1507371295.2,286047000.8,N
1507371315.9,286047000.9,N
1507371335.7,286047003.2,N
1507371355.6,286046998.1,N
1507371375.4,286046996.6,N
1507371395.2,286047000.1,N
1507371415.0,286047004.3,N
1507371416.0,286047004.3,N
1507371435.8,286047001.2,N
1507371455.6,286047001.3,N
1507371475.4,286047002.8,N
1507371495.5,286046997.5,N
1507371515.3,286046997.2,N
1507371535.1,286046999.0,N
1507371555.9,286047001.1,N
1507371575.7,286047003.8,N
1507371595.5,286047000.0,N
1507371615.3,286047006.0,N
1507371635.2,286047000.0,N
1507371655.0,286047000.7,N
1507371655.9,286047000.7,N
1507371675.7,286047000.8,N
1507371695.6,286047002.4,N
1507371715.4,286046998.1,N
1507371735.2,286046998.2,N
1507371755.1,286047001.2,N
1507371756.0,286047001.2,N
1507371775.8,286047001.5,N
1507371795.6,286046998.9,N
1507371815.5,286046999.3,N
1507371835.3,286046999.0,N
1507371855.1,286046998.3,N
1507371875.9,286046999.1,N
1507371895.7,286047000.4,N
1507371915.5,286046999.1,N
1507371935.4,286046998.4,N
1507371955.2,286046999.1,N
1507371975.0,286046993.3,Y
1507371975.9,286046993.3,P
1507371995.8,286046992.5,N
1507372015.6,286046999.4,N
1507372035.4,286046997.7,N
1507372055.3,286046995.4,N
1507372075.1,286046996.6,N
1507372076.0,286046996.6,N
1507372095.8,286046998.5,N
1507372115.6,286046998.8,N
1507372135.5,286047002.2,N
1507372155.3,286047002.8,N
1507372175.1,286046999.3,N
1507372195.9,286046998.1,N
1507372215.7,286046996.8,N
1507372235.5,286047000.5,N
1507372255.4,286047001.6,N
1507372275.2,286047004.0,N
1507372295.0,286047004.4,N
1507372295.9,286047004.4,N
1507372315.8,286047006.0,N
1507372335.6,286046999.7,N
1507372355.4,286046999.9,N
1507372375.3,286046999.1,N
1507372395.1,286046998.3,N
1507372396.0,286046998.3,N
1507372415.8,286046999.1,N
1507372435.6,286046995.6,N
1507372455.5,286046997.1,N
1507372475.3,286046998.4,N
1507372495.1,286047000.0,N
1507372515.9,286047003.9,N
1507372535.7,286047001.7,N
1507372555.5,286047000.6,N
1507372575.4,286047002.1,N
1507372595.2,286047002.2,N
1507372615.0,286047001.8,N
1507372615.9,286047001.8,N
1507372635.8,286046999.9,N
1507372655.6,286046998.5,N
1507372675.4,286046999.3,N
1507372695.3,286047000.2,N
1507372715.1,286047001.1,N
1507372716.0,286047001.1,N
1507372735.8,286047004.1,N
1507372755.7,286047001.6,N
1507372775.5,286046999.7,N
1507372795.3,286046998.2,N
1507372815.1,286047001.5,N
1507372835.9,286047001.8,N
1507372855.7,286047001.7,N
1507372875.5,286047001.6,N
1507372895.4,286047003.8,N
1507372915.2,286047005.6,N
1507372935.0,286047001.3,N
1507372935.9,286047001.3,N
1507372955.8,286047003.4,N
1507372975.6,286047005.6,N
1507372995.4,286047004.7,N
1507373015.3,286047005.0,N
1507373035.1,286047002.9,N
1507373036.0,286047002.9,N
1507373055.8,286047004.0,N
1507373075.7,286047006.0,Y
1507373095.5,286047004.4,P
1507373115.3,286047002.0,N
1507373135.2,286047005.4,P
1507373155.9,286047005.3,Y
1507373175.7,286046998.5,P
1507373195.6,286046998.0,N
1507373215.4,286046999.0,N
1507373235.2,286047000.3,N
1507373255.1,286046996.9,N
1507373256.0,286046996.9,N
1507373275.8,286046999.6,N
1507373295.6,286047000.8,N
1507373315.4,286047001.0,N
1507373335.3,286047000.7,N
1507373355.1,286047000.8,N
1507373375.8,286047000.7,N
1507373395.7,286046998.9,N
1507373415.5,286046995.3,N
1507373435.3,286047001.2,N
1507373455.2,286046999.9,N
1507373475.9,286047001.8,N
1507373495.7,286047004.2,N
1507373515.6,286047005.7,N
1507373535.4,286047005.9,N
1507373555.2,286047003.9,N
1507373575.1,286047005.9,N
1507373576.0,286047005.9,N
1507373595.8,286047004.0,N
1507373615.6,286047002.2,N
1507373635.5,286047008.7,N
1507373655.3,286047002.4,N
1507373675.1,286046999.9,N
1507373695.8,286046997.0,N
1507373715.7,286046997.7,N
1507373735.5,286046998.0,N
1507373755.3,286046996.6,N
1507373775.2,286046993.8,N
1507373795.0,286046995.5,N
1507373795.9,286046995.5,N
1507373815.7,286046996.1,N
1507373835.6,286046994.3,N
1507373855.4,286046993.6,N
1507373875.2,286046997.7,N
1507373895.1,286046997.9,N
1507373896.0,286046997.9,N
1507373915.8,286046997.9,N
1507373935.6,286046998.0,N
1507373955.5,286046994.4,N
1507373975.3,286046995.0,N
1507373995.1,286046998.4,N
